Flag for French Polynesia Weather past 2 weeks in Gambier Islands, French Polynesia

Now
74 °F

Mild.


Feels Like: 76 °F
Forecast: 75 / 80 °F
Wind: 10 mph from Southeast

Location: Rikitea

Current Time: Apr 26, 2015 at 7:50:24 PM

Latest Report: Apr 26, 2015 at 7:00 PM


Visibility: N/A

Pressure: 30.07 "Hg

Humidity: 69%

Dew point: 64 °F

Location of Gambier IslandsLocation

Historic Weather in Gambier Islands — Graph

°F

Gambier Islands temperature yesterday

Maximum temperature yesterday: 79 °F (at 11:00 AM)
Minimum temperature yesterday: 73 °F (at 2:00 AM)
Average temperature yesterday: 75 °F

Past Weeks' High & Low Weather Summary

 TemperatureHumidityPressure
High84 °F (Apr 12, 2:00 PM)100% (Apr 13, 5:00 PM)30.14 "Hg (Apr 13, 5:00 PM)
Low69 °F (Apr 18, 5:00 AM)49% (Apr 22, 12:00 PM)29.85 "Hg (Apr 15, 4:00 PM)
Average74 °F71%30.00 "Hg
* Reported Apr 11 7:00 PM — Apr 26 6:00 PM, Gambier Islands, Weather by CustomWeather, © 2015

Note: Actual official high and low records may vary slightly from our data, if they occured in-between our weather recording intervals... More about our weather records

Advertising

Gambier Islands weather history for previous 24 hours

 ConditionsComfort  
Time TempWeatherWind HumidityBarometerVisibility
6:00 PM
Sun, Apr 26
75 °FMild.12 mph73%30.06 "HgN/A
5:00 PM75 °FMild.10 mph71%30.04 "HgN/A
4:00 PM75 °FScattered clouds.12 mph69%30.03 "Hg25 mi
3:00 PM77 °FPartly sunny.10 mph62%30.02 "Hg25 mi
2:00 PM77 °FWarm.12 mph60%30.03 "HgN/A
1:00 PM78 °FWarm.12 mph59%30.05 "HgN/A
12:00 PM78 °FPassing clouds.10 mph61%30.07 "Hg25 mi
11:00 AM78 °FPassing clouds.13 mph59%30.10 "Hg25 mi
10:00 AM78 °FPassing clouds.10 mph63%30.11 "Hg25 mi
9:00 AM77 °FPassing clouds.12 mph62%30.12 "Hg22 mi
8:00 AM76 °FPassing clouds.13 mph65%30.11 "Hg22 mi
7:00 AM75 °FMild.13 mph71%30.10 "HgN/A
6:00 AM74 °FPassing clouds.13 mph69%30.08 "Hg22 mi
5:00 AM74 °FMild.10 mph70%30.06 "HgN/A
4:00 AM74 °FMild.12 mph71%30.06 "HgN/A
3:00 AM74 °FMild.10 mph68%30.07 "HgN/A
2:00 AM74 °FMild.9 mph69%30.07 "HgN/A
1:00 AM74 °FMild.10 mph71%30.08 "HgN/A
12:00 AM74 °FMild.10 mph70%30.08 "HgN/A
11:00 PM
Sat, Apr 25
74 °FMild.13 mph68%30.09 "HgN/A
10:00 PM74 °FMild.13 mph70%30.10 "HgN/A
9:00 PM75 °FMild.12 mph70%30.10 "HgN/A
7:00 PM74 °FMild.10 mph68%30.06 "HgN/A
Weather by CustomWeather, © 2015

See weather overviewHow to use our weather pages